NSZ3295 LYTV-EKCH

Flight info

Callsign NSZ3295
Flight time N/A
Altitude 36000
Route NIK DCT BAREB DCT REGLI L617 KOLOB DCT ROE M743 TIDVU
Aircraft B738/M-SDE2E3GHIJ1LRWXY/LB1

Departure

Time 2026-05-04 13:29
Airport Tivat Airport (LYTV)

Arrival

Time N/A
Airport Copenhagen Kastrup Airport (EKCH)
Time Latitude Longitude Altitude Speed Heading
2026-05-04 13:21 42.41256 18.71648 4 ft 0 kts 162°
2026-05-04 13:26 42.41248 18.71648 4 ft 5 kts 184°
2026-05-04 13:26 42.41251 18.71588 5 ft 9 kts 317°
2026-05-04 13:26 42.41302 18.71528 3 ft 11 kts 318°
2026-05-04 13:26 42.41356 18.71439 3 ft 13 kts 282°
2026-05-04 13:27 42.41304 18.71348 2 ft 11 kts 184°
2026-05-04 13:27 42.41268 18.71383 2 ft 2 kts 139°
2026-05-04 13:27 42.41265 18.71386 2 ft 0 kts 139°
2026-05-04 13:28 42.41141 18.71532 4 ft 56 kts 139°
2026-05-04 13:28 42.40674 18.72084 2 ft 120 kts 139°
2026-05-04 13:29 42.39922 18.72983 71 ft 162 kts 139°
2026-05-04 13:29 42.39072 18.73973 736 ft 159 kts 145°
2026-05-04 13:29 42.38072 18.74644 1391 ft 161 kts 160°
2026-05-04 13:29 42.36993 18.75186 2016 ft 173 kts 159°
2026-05-04 13:30 42.35820 18.75790 2757 ft 185 kts 160°
2026-05-04 13:30 42.34639 18.76408 3741 ft 179 kts 159°
2026-05-04 13:30 42.33491 18.77006 4604 ft 180 kts 168°
2026-05-04 13:30 42.32144 18.77012 4908 ft 210 kts 195°
2026-05-04 13:31 42.30874 18.75904 5116 ft 235 kts 234°
2026-05-04 13:31 42.30195 18.73761 5368 ft 264 kts 255°
2026-05-04 13:31 42.29798 18.71277 6041 ft 275 kts 258°
2026-05-04 13:31 42.29449 18.68719 6863 ft 279 kts 263°
2026-05-04 13:32 42.29725 18.66134 7650 ft 284 kts 296°
2026-05-04 13:32 42.31004 18.64113 8434 ft 289 kts 325°
2026-05-04 13:32 42.32859 18.63053 9193 ft 294 kts 349°
2026-05-04 13:32 42.34907 18.63095 9923 ft 299 kts 13°
2026-05-04 13:33 42.36867 18.64104 10482 ft 309 kts 25°
2026-05-04 13:33 42.38827 18.65441 10958 ft 321 kts 27°
2026-05-04 13:33 42.40809 18.66865 11645 ft 324 kts 28°
2026-05-04 13:33 42.42782 18.68265 12323 ft 327 kts 25°
2026-05-04 13:34 42.45004 18.69088 12942 ft 330 kts
2026-05-04 13:34 42.47278 18.69000 13543 ft 333 kts 356°
2026-05-04 13:34 42.49604 18.68773 14123 ft 337 kts 355°
2026-05-04 13:34 42.51955 18.68526 14700 ft 341 kts 355°
2026-05-04 13:35 42.54332 18.68284 15268 ft 344 kts 355°
2026-05-04 13:35 42.59149 18.67833 16344 ft 350 kts 356°
2026-05-04 13:35 42.61596 18.67621 16836 ft 354 kts 356°
2026-05-04 13:36 42.64066 18.67413 17324 ft 357 kts 356°
2026-05-04 13:36 42.66559 18.67208 17792 ft 360 kts 356°
2026-05-04 13:36 42.69070 18.67003 18247 ft 363 kts 356°
2026-05-04 13:36 42.70779 18.66864 18538 ft 365 kts 356°
2026-05-04 13:37 42.73286 18.66662 18972 ft 367 kts 356°
2026-05-04 13:37 42.75846 18.66455 19312 ft 371 kts 356°
2026-05-04 13:37 42.78434 18.66248 19721 ft 373 kts 356°
2026-05-04 13:37 42.81066 18.66038 20165 ft 375 kts 356°
2026-05-04 13:38 42.83642 18.65831 20552 ft 377 kts 356°
2026-05-04 13:38 42.86271 18.65621 20902 ft 380 kts 356°
2026-05-04 13:38 42.88919 18.65409 21235 ft 383 kts 356°
2026-05-04 13:38 42.91586 18.65195 21570 ft 385 kts 356°
2026-05-04 13:39 42.94265 18.64979 21918 ft 386 kts 356°
2026-05-04 13:39 42.96958 18.64762 22183 ft 390 kts 356°
2026-05-04 13:39 42.99675 18.64543 22464 ft 392 kts 356°
2026-05-04 13:39 43.02404 18.64323 22782 ft 394 kts 356°
2026-05-04 13:40 43.05145 18.64102 23110 ft 395 kts 356°
2026-05-04 13:40 43.07896 18.63880 23347 ft 398 kts 356°
2026-05-04 13:40 43.10669 18.63655 23589 ft 401 kts 356°
2026-05-04 13:40 43.13459 18.63428 23863 ft 402 kts 356°
2026-05-04 13:41 43.16253 18.63201 24138 ft 403 kts 356°
2026-05-04 13:41 43.19054 18.62973 24322 ft 406 kts 356°
2026-05-04 13:41 43.21883 18.62743 24535 ft 408 kts 356°
2026-05-04 13:42 43.27565 18.62281 25014 ft 410 kts 356°
2026-05-04 13:42 43.30418 18.62049 25225 ft 412 kts 356°
2026-05-04 13:42 43.33293 18.61816 25362 ft 416 kts 356°
2026-05-04 13:42 43.36186 18.61579 25578 ft 416 kts 356°
2026-05-04 13:43 43.39071 18.61343 25831 ft 415 kts 356°
2026-05-04 13:43 43.41967 18.61106 25958 ft 418 kts 356°
2026-05-04 13:43 43.44879 18.60868 26099 ft 421 kts 356°
2026-05-04 13:43 43.47801 18.60629 26299 ft 421 kts 356°
2026-05-04 13:44 43.50727 18.60389 26482 ft 422 kts 356°
2026-05-04 13:44 43.53662 18.60148 26636 ft 423 kts 356°
2026-05-04 13:44 43.56604 18.59906 26778 ft 425 kts 356°
2026-05-04 13:44 43.59557 18.59663 26922 ft 426 kts 356°
2026-05-04 13:45 43.62512 18.59419 27088 ft 426 kts 356°
2026-05-04 13:45 43.65476 18.59175 27192 ft 427 kts 356°
2026-05-04 13:45 43.68453 18.58929 27310 ft 429 kts 356°
2026-05-04 13:45 43.71431 18.58684 27430 ft 430 kts 356°
2026-05-04 13:46 43.74422 18.58437 27545 ft 431 kts 356°
2026-05-04 13:46 43.77423 18.58189 27671 ft 432 kts 356°
2026-05-04 13:46 43.80421 18.57940 27793 ft 433 kts 356°
2026-05-04 13:46 43.83433 18.57690 27909 ft 434 kts 356°
2026-05-04 13:47 43.86447 18.57439 28019 ft 435 kts 356°
2026-05-04 13:47 43.89468 18.57188 28120 ft 435 kts 356°
2026-05-04 13:47 43.95531 18.56684 28313 ft 437 kts 356°
2026-05-04 13:48 43.98565 18.56432 28442 ft 437 kts 356°
2026-05-04 13:48 44.01609 18.56178 28475 ft 439 kts 356°
2026-05-04 13:48 44.07720 18.55668 28658 ft 440 kts 356°
2026-05-04 13:49 44.10778 18.55413 28765 ft 440 kts 356°
2026-05-04 13:49 44.13842 18.55157 28840 ft 441 kts 356°
2026-05-04 13:49 44.19985 18.54640 28994 ft 443 kts 356°
2026-05-04 13:50 44.26104 18.54125 29156 ft 444 kts 356°
2026-05-04 13:50 44.32280 18.53605 29273 ft 445 kts 356°
2026-05-04 13:51 44.38474 18.53083 29408 ft 446 kts 356°
2026-05-04 13:51 44.44682 18.52557 29543 ft 447 kts 356°
2026-05-04 13:52 44.50907 18.52030 29663 ft 448 kts 356°
2026-05-04 13:52 44.54016 18.51766 29745 ft 448 kts 356°
2026-05-04 13:53 44.60240 18.51235 29853 ft 449 kts 356°
2026-05-04 13:53 44.66477 18.50705 29947 ft 450 kts 356°
2026-05-04 13:54 44.75853 18.49902 30086 ft 451 kts 356°
2026-05-04 13:55 44.85253 18.49096 30213 ft 452 kts 356°
2026-05-04 13:55 44.94677 18.48284 30320 ft 453 kts 356°
2026-05-04 13:56 45.00976 18.47741 30362 ft 454 kts 356°
2026-05-04 13:56 45.07281 18.47198 30470 ft 454 kts 356°
2026-05-04 13:57 45.10432 18.46925 30501 ft 454 kts 356°
2026-05-04 13:58 45.23085 18.45826 30537 ft 457 kts 356°
2026-05-04 13:58 45.32623 18.44993 30553 ft 459 kts 356°
2026-05-04 13:59 45.38984 18.44438 30706 ft 456 kts 356°
2026-05-04 14:00 45.48484 18.43604 30788 ft 457 kts 356°
2026-05-04 14:00 45.57968 18.42770 30807 ft 458 kts 356°
2026-05-04 14:01 45.64338 18.42208 30818 ft 459 kts 356°
2026-05-04 14:02 45.73945 18.41358 30878 ft 465 kts 356°
2026-05-04 14:02 45.80400 18.40780 30883 ft 465 kts 356°
2026-05-04 14:03 45.86855 18.40199 30890 ft 465 kts 356°
2026-05-04 14:03 45.93311 18.39617 30896 ft 465 kts 356°
2026-05-04 14:04 46.02985 18.38742 30913 ft 464 kts 356°
2026-05-04 14:04 46.09432 18.38157 30921 ft 464 kts 356°
2026-05-04 14:05 46.19105 18.37276 30943 ft 464 kts 356°
2026-05-04 14:06 46.25521 18.36691 31015 ft 461 kts 356°
2026-05-04 14:06 46.31886 18.36111 31236 ft 455 kts 356°
2026-05-04 14:06 46.35037 18.35823 31384 ft 452 kts 356°
2026-05-04 14:07 46.38153 18.35537 31662 ft 446 kts 356°
2026-05-04 14:07 46.44359 18.34965 31695 ft 448 kts 356°
2026-05-04 14:08 46.50552 18.34396 31709 ft 450 kts 356°
2026-05-04 14:08 46.56808 18.33817 31914 ft 449 kts 356°
2026-05-04 14:09 46.66185 18.32951 32385 ft 453 kts 356°
2026-05-04 14:10 46.75761 18.32060 32754 ft 465 kts 356°
2026-05-04 14:10 46.78993 18.31760 33052 ft 465 kts 356°
2026-05-04 14:10 46.82212 18.31460 33409 ft 462 kts 356°
2026-05-04 14:10 46.85417 18.31161 33744 ft 461 kts 356°
2026-05-04 14:11 46.88615 18.30862 34012 ft 461 kts 356°
2026-05-04 14:11 46.95016 18.30263 34530 ft 460 kts 356°
2026-05-04 14:11 46.98212 18.29963 34813 ft 459 kts 356°
2026-05-04 14:12 47.01398 18.29664 35098 ft 458 kts 356°
2026-05-04 14:12 47.04579 18.29365 35338 ft 458 kts 356°
2026-05-04 14:12 47.10940 18.28766 35806 ft 458 kts 356°
2026-05-04 14:13 47.14118 18.28466 36048 ft 457 kts 356°
2026-05-04 14:13 47.17290 18.28167 36297 ft 456 kts 356°
2026-05-04 14:13 47.20455 18.27867 36518 ft 456 kts 356°
2026-05-04 14:13 47.23626 18.27567 36691 ft 457 kts 356°
2026-05-04 14:14 47.26804 18.27266 36849 ft 458 kts 356°
2026-05-04 14:14 47.33149 18.26663 37293 ft 456 kts 356°
2026-05-04 14:14 47.36319 18.26362 37451 ft 457 kts 356°
2026-05-04 14:15 47.42690 18.25754 37731 ft 459 kts 356°
2026-05-04 14:15 47.49047 18.25147 37984 ft 459 kts 356°
2026-05-04 14:16 47.58568 18.24235 37991 ft 454 kts 356°
2026-05-04 14:17 47.67903 18.23337 37991 ft 443 kts 356°
2026-05-04 14:18 47.77030 18.22454 38006 ft 437 kts 356°
2026-05-04 14:19 47.89288 18.21267 38011 ft 448 kts 356°
2026-05-04 14:19 47.95547 18.20656 38010 ft 453 kts 356°
2026-05-04 14:20 48.01880 18.20041 38010 ft 458 kts 356°
2026-05-04 14:20 48.08269 18.19417 38006 ft 460 kts 356°
2026-05-04 14:21 48.17731 18.18494 37990 ft 448 kts 356°
2026-05-04 14:21 48.23914 18.17884 37990 ft 442 kts 356°
2026-05-04 14:22 48.30000 18.17283 37989 ft 435 kts 356°
2026-05-04 14:22 48.36000 18.16696 37985 ft 429 kts 356°
2026-05-04 14:23 48.44856 18.15815 37997 ft 421 kts 356°
2026-05-04 14:24 48.50704 18.15231 38010 ft 424 kts 356°
2026-05-04 14:24 48.55621 18.14739 38013 ft 428 kts 356°
2026-05-04 14:25 48.61613 18.14143 38011 ft 435 kts 356°
2026-05-04 14:25 48.70764 18.13229 38014 ft 443 kts 356°
2026-05-04 14:26 48.76938 18.12608 38001 ft 441 kts 356°
2026-05-04 14:26 48.82993 18.11997 37990 ft 431 kts 356°
2026-05-04 14:27 48.88924 18.11397 37997 ft 422 kts 356°
2026-05-04 14:27 48.94802 18.10802 38012 ft 427 kts 356°
2026-05-04 14:28 49.00788 18.10196 38012 ft 435 kts 356°
2026-05-04 14:28 49.06763 18.09589 38014 ft 443 kts 356°
2026-05-04 14:29 49.18980 18.08345 38004 ft 428 kts 355°
2026-05-04 14:30 49.24914 18.07737 37999 ft 427 kts 354°
2026-05-04 14:31 49.33799 18.06822 38003 ft 427 kts 354°
2026-05-04 14:32 49.45686 18.05594 37999 ft 430 kts 354°
2026-05-04 14:32 49.51671 18.04976 38002 ft 432 kts 354°
2026-05-04 14:33 49.57688 18.04352 38007 ft 435 kts 354°
2026-05-04 14:33 49.63737 18.03723 37992 ft 437 kts 354°
2026-05-04 14:34 49.69820 18.03090 37992 ft 439 kts 354°
2026-05-04 14:34 49.75911 18.02454 37991 ft 439 kts 354°
2026-05-04 14:35 49.82007 18.01810 37992 ft 439 kts 354°
2026-05-04 14:35 49.88109 18.01172 37990 ft 439 kts 354°
2026-05-04 14:36 49.94208 18.00529 37994 ft 439 kts 354°
2026-05-04 14:36 50.00295 17.99887 37988 ft 438 kts 354°
2026-05-04 14:37 50.06212 17.97953 37994 ft 433 kts 338°
2026-05-04 14:37 50.11828 17.94609 37987 ft 432 kts 337°
2026-05-04 14:38 50.17435 17.91280 37990 ft 431 kts 338°
2026-05-04 14:38 50.23014 17.88028 37989 ft 431 kts 338°
2026-05-04 14:39 50.28625 17.84767 37989 ft 430 kts 338°
2026-05-04 14:39 50.34234 17.81501 37978 ft 430 kts 338°
2026-05-04 14:40 50.42643 17.76578 37982 ft 430 kts 337°
2026-05-04 14:40 50.48252 17.73279 37980 ft 431 kts 337°
2026-05-04 14:41 50.53860 17.69971 37964 ft 431 kts 337°
2026-05-04 14:42 50.65102 17.63321 37960 ft 432 kts 337°
2026-05-04 14:42 50.70740 17.59972 37963 ft 433 kts 337°
2026-05-04 14:43 50.76382 17.56611 37947 ft 434 kts 337°
2026-05-04 14:43 50.82044 17.53289 37949 ft 434 kts 337°
2026-05-04 14:44 50.87714 17.49973 37957 ft 435 kts 337°
2026-05-04 14:44 50.93367 17.46585 37940 ft 434 kts 336°
2026-05-04 14:45 50.99016 17.43174 37946 ft 435 kts 336°
2026-05-04 14:45 51.04667 17.39763 37945 ft 435 kts 336°
2026-05-04 14:46 51.10321 17.36346 37943 ft 435 kts 336°
2026-05-04 14:46 51.15971 17.32921 37951 ft 435 kts 336°
2026-05-04 14:47 51.21622 17.29492 37949 ft 435 kts 336°
2026-05-04 14:47 51.27278 17.26062 37948 ft 435 kts 336°
2026-05-04 14:48 51.32929 17.22618 37943 ft 435 kts 336°
2026-05-04 14:48 51.38576 17.19169 37949 ft 434 kts 336°
2026-05-04 14:49 51.44219 17.15707 37943 ft 434 kts 336°
2026-05-04 14:49 51.49862 17.12239 37944 ft 435 kts 335°
2026-05-04 14:50 51.55508 17.08766 37945 ft 434 kts 335°
2026-05-04 14:50 51.61146 17.05286 37946 ft 434 kts 335°
2026-05-04 14:51 51.66782 17.01797 37948 ft 434 kts 335°
2026-05-04 14:51 51.72413 16.98302 37940 ft 433 kts 335°
2026-05-04 14:52 51.78036 16.94795 37955 ft 433 kts 335°
2026-05-04 14:52 51.83645 16.91284 37954 ft 432 kts 335°
2026-05-04 14:53 51.89251 16.87768 37956 ft 432 kts 335°
2026-05-04 14:53 51.94817 16.84269 37956 ft 432 kts 335°
2026-05-04 14:54 52.00421 16.80733 37951 ft 432 kts 335°
2026-05-04 14:54 52.06029 16.77187 37952 ft 433 kts 334°
2026-05-04 14:55 52.11652 16.73622 37963 ft 434 kts 334°
2026-05-04 14:55 52.17292 16.70074 37971 ft 435 kts 335°
2026-05-04 14:56 52.22944 16.66557 37956 ft 435 kts 335°
2026-05-04 14:56 52.28604 16.63023 37962 ft 436 kts 335°
2026-05-04 14:57 52.34267 16.59474 37968 ft 436 kts 334°
2026-05-04 14:57 52.39921 16.55915 37964 ft 436 kts 334°
2026-05-04 14:58 52.45581 16.52344 37958 ft 436 kts 334°
2026-05-04 14:58 52.51234 16.48768 37960 ft 436 kts 334°
2026-05-04 14:59 52.56891 16.45184 37956 ft 436 kts 334°
2026-05-04 15:00 52.65369 16.39789 37968 ft 435 kts 334°
2026-05-04 15:00 52.71013 16.36185 37950 ft 435 kts 334°
2026-05-04 15:01 52.79468 16.30763 37956 ft 434 kts 334°
2026-05-04 15:01 52.85102 16.27144 37955 ft 434 kts 334°
2026-05-04 15:02 52.90730 16.23517 37953 ft 434 kts 334°
2026-05-04 15:02 52.96354 16.19881 37952 ft 434 kts 334°
2026-05-04 15:03 53.01975 16.16236 37951 ft 433 kts 333°
2026-05-04 15:03 53.07558 16.12605 37957 ft 434 kts 333°
2026-05-04 15:04 53.13185 16.08937 37950 ft 435 kts 333°
2026-05-04 15:04 53.18822 16.05252 37963 ft 435 kts 333°
2026-05-04 15:05 53.24464 16.01551 37957 ft 436 kts 333°
2026-05-04 15:05 53.30110 15.97836 37953 ft 437 kts 333°
2026-05-04 15:06 53.35766 15.94107 37962 ft 437 kts 333°
2026-05-04 15:07 53.44263 15.88484 37953 ft 438 kts 333°